This demonstration page uses our WeatherBlox Daily Observations layout. Learn more.

39.92423, -83.80882

Hourly Observations for May 4, 2016

Temp ( °F °C ) Dew Point ( °F °C ) Humidity (%) Winds ( mph kmh ) Pressure ( in mb ) Visibility ( mi km ) Precip ( " mm )
12:56 am 00:56 Clear 48 8.8 47 8.3 97 97 SSW 5 7 29.83 1010 10 16.0934 0 0
1:56 am 01:56 Clear with Mist and Fog 46 7.7 46 7.7 100 100 SW 5 7 29.81 1010 6 9.65604 0 0
2:56 am 02:56 Clear 47 8.3 47 8.3 100 100 SW 8 13 29.79 1009 10 16.0934 0 0
3:56 am 03:56 Clear 47 8.3 47 8.3 100 100 SSW 7 11 29.76 1008 8 12.87472 0 0
4:56 am 04:56 Clear with Mist and Fog 46 7.7 46 7.7 100 100 SSW 7 11 29.74 1007 6 9.65604 0 0
5:56 am 05:56 Clear with Mist and Fog 46 7.7 46 7.7 100 100 S 7 11 29.73 1007 4 6.43736 0 0
6:56 am 06:56 Mostly Cloudy 47 8.3 47 8.3 100 100 S 7 11 29.71 1006 7 11.26538 0 0
7:56 am 07:56 Mostly Cloudy 48 8.8 48 8.8 100 100 S 9 15 29.71 1006 10 16.0934 0 0
8:56 am 08:56 Sunny 51 10.5 49 9.4 93 93 S 9 15 29.69 1006 10 16.0934 0 0
9:56 am 09:56 Partly Cloudy 55 12.7 49 9.4 81 81 S 9 15 29.67 1005 10 16.0934 0 0
10:56 am 10:56 Mostly Sunny 59 15 48 8.8 67 67 SW 17 28 29.67 1005 10 16.0934 0 0
11:56 am 11:56 Mostly Cloudy 57 13.8 46 7.7 67 67 SW 17 28 29.67 1005 10 16.0934 0 0
12:56 pm 12:56 Cloudy 52 11.1 49 9.4 89 89 SW 12 19 29.68 1005 10 16.0934 0 0.0254
1:56 pm 13:56 Mostly Cloudy 54 12.2 49 9.4 83 83 S 12 19 29.66 1004 10 16.0934 0 0
2:18 pm 14:18 Cloudy 54 12 48 9 82 82 S 16 26 29.65 1004 10 16.0934 0 0
2:43 pm 14:43 Cloudy with Light Rain 52 11 48 9 88 88 SSW 15 24 29.65 1004 2.5 4.02335 0.02 0.508
2:45 pm 14:45 Cloudy with Rain 52 11 48 9 88 88 SSW 16 26 29.65 1004 1.75 2.816345 0.04 1.016
2:56 pm 14:56 Mostly Cloudy with Light Rain 51 10.5 49 9.4 93 93 SW 15 24 29.66 1005 2.5 4.02335 0.07 1.778
2:59 pm 14:59 Mostly Cloudy with Light Rain 52 11 48 9 88 88 SW 13 20 29.65 1004 3 4.82802 0 0.0254
3:15 pm 15:15 Mostly Cloudy with Light Rain 52 11 48 9 88 88 SW 10 17 29.65 1004 10 16.0934 0 0.0254
3:48 pm 15:48 Cloudy with Light Rain 52 11 50 10 94 94 W 8 13 29.65 1004 10 16.0934 0 0.0254
3:56 pm 15:56 Mostly Cloudy 52 11.1 50 10 93 93 W 9 15 29.66 1004 10 16.0934 0 0.0254
4:05 pm 16:05 Mostly Cloudy 54 12 50 10 88 88 W 10 17 29.65 1004 10 16.0934 0 0
4:17 pm 16:17 Cloudy 54 12 48 9 82 82 W 12 19 29.65 1004 10 16.0934 0 0
4:24 pm 16:24 Cloudy 54 12 46 8 77 77 W 13 20 29.65 1004 10 16.0934 0 0
4:56 pm 16:56 Partly Cloudy 56 13.3 45 7.2 67 67 WNW 16 26 29.65 1004 10 16.0934 0 0
5:56 pm 17:56 Mostly Cloudy 54 12.2 41 5 62 62 W 18 30 29.68 1005 10 16.0934 0 0
6:56 pm 18:56 Cloudy 51 10.5 41 5 69 69 W 17 28 29.7 1006 10 16.0934 0 0
7:56 pm 19:56 Cloudy 49 9.4 40 4.4 71 71 W 16 26 29.73 1007 10 16.0934 0 0
8:56 pm 20:56 Cloudy 48 8.8 39 3.8 71 71 W 9 15 29.73 1007 10 16.0934 0 0
9:56 pm 21:56 Cloudy 47 8.3 38 3.3 71 71 WNW 12 19 29.74 1007 10 16.0934 0 0
10:56 pm 22:56 Cloudy 46 7.7 38 3.3 74 74 W 10 17 29.74 1007 10 16.0934 0 0
11:56 pm 23:56 Mostly Clear 43 6.1 36 2.2 76 76 W 14 22 29.74 1007 10 16.0934 0 0

Powered by AerisWeather